When you browse on this site, cookies collect data to enhance your experience and personalize the content and advertising you see.
Visit our Privacy Policy to learn more. By continuing to use the site, you agree to this use of cookies and data.
  • In Netherlands
  • List of Countries
  • For 7 days
  • Water Temperature
  • Satellite Maps
  • Weather Map
  • Weather Widgets
  • user-avatar
    Login

    Hourly Weather Bandar Seri Begawan

    Today, 21 July, Sunday

    Time Temperature Precipitation Wind Pressure Humidity
    00:00 +28°C° 0.1 mm 2 mps 754 mmHg 92%
    01:00 +27°C° 0.1 mm 2 mps 754 mmHg 92%
    02:00 +27°C° 0 mm 2 mps 754 mmHg 92%
    03:00 +27°C° 0.3 mm 2 mps 754 mmHg 92%
    04:00 +27°C° 0.3 mm 2 mps 754 mmHg 93%
    05:00 +27°C° 0.3 mm 1 mps 754 mmHg 93%
    06:00 +27°C° 0.1 mm 1 mps 754 mmHg 93%
    07:00 +27°C° 0.1 mm 1 mps 754 mmHg 92%
    08:00 +28°C° 0.1 mm 1 mps 755 mmHg 92%
    09:00 +30°C° 0 mm 1 mps 754 mmHg 82%
    10:00 +32°C° 0 mm 1 mps 754 mmHg 71%
    11:00 +34°C° 0 mm 1 mps 754 mmHg 61%
    12:00 +34°C° 0.2 mm 1 mps 753 mmHg 64%
    13:00 +34°C° 0.2 mm 2 mps 753 mmHg 66%
    14:00 +34°C° 0.2 mm 3 mps 752 mmHg 69%
    15:00 +33°C° 0.7 mm 3 mps 752 mmHg 72%
    16:00 +33°C° 0.7 mm 3 mps 752 mmHg 75%
    17:00 +31°C° 0.7 mm 3 mps 752 mmHg 78%
    18:00 +30°C° 1.1 mm 2 mps 752 mmHg 82%
    19:00 +29°C° 1.1 mm 2 mps 752 mmHg 86%
    20:00 +28°C° 1.1 mm 1 mps 753 mmHg 90%
    21:00 +28°C° 0 mm 1 mps 753 mmHg 90%
    22:00 +27°C° 0 mm 1 mps 754 mmHg 91%
    23:00 +27°C° 0 mm 1 mps 754 mmHg 91%

    Tomorrow, 22 July, Monday

    Time Temperature Precipitation Wind Pressure Humidity
    00:00 +27°C° 0.1 mm 1 mps 754 mmHg 92%
    01:00 +27°C° 0.1 mm 1 mps 753 mmHg 93%
    02:00 +26°C° 0.1 mm 1 mps 753 mmHg 94%
    03:00 +26°C° 0 mm 1 mps 753 mmHg 94%
    04:00 +26°C° 0 mm 1 mps 753 mmHg 94%
    05:00 +26°C° 0 mm 1 mps 753 mmHg 94%
    06:00 +26°C° 0 mm 2 mps 753 mmHg 93%
    07:00 +27°C° 0 mm 2 mps 754 mmHg 91%
    08:00 +27°C° 0 mm 2 mps 754 mmHg 89%
    09:00 +29°C° 0.4 mm 2 mps 754 mmHg 83%
    10:00 +30°C° 0.4 mm 1 mps 754 mmHg 76%
    11:00 +32°C° 0.4 mm 1 mps 754 mmHg 70%
    12:00 +32°C° 1.1 mm 2 mps 753 mmHg 73%
    13:00 +31°C° 1.1 mm 2 mps 753 mmHg 77%
    14:00 +31°C° 1.1 mm 3 mps 752 mmHg 81%
    15:00 +31°C° 0.8 mm 2 mps 752 mmHg 81%
    16:00 +31°C° 0.8 mm 2 mps 752 mmHg 81%
    17:00 +31°C° 0.8 mm 2 mps 752 mmHg 82%
    18:00 +29°C° 0.6 mm 2 mps 752 mmHg 85%
    19:00 +28°C° 0.6 mm 2 mps 753 mmHg 88%
    20:00 +27°C° 0.6 mm 2 mps 753 mmHg 92%
    21:00 +27°C° 0.4 mm 2 mps 754 mmHg 93%
    22:00 +27°C° 0.4 mm 2 mps 754 mmHg 93%
    23:00 +26°C° 0.4 mm 2 mps 755 mmHg 94%

    Day after tomorrow, 23 July, Tuesday

    Time Temperature Precipitation Wind Pressure Humidity
    00:00 +26°C° 2.7 mm 2 mps 754 mmHg 95%
    01:00 +26°C° 2.7 mm 2 mps 754 mmHg 95%
    02:00 +26°C° 2.7 mm 2 mps 754 mmHg 95%
    03:00 +26°C° 1.9 mm 2 mps 754 mmHg 95%
    04:00 +26°C° 1.9 mm 2 mps 753 mmHg 95%
    05:00 +26°C° 1.9 mm 2 mps 753 mmHg 94%
    06:00 +26°C° 0.2 mm 2 mps 754 mmHg 94%
    07:00 +27°C° 0.2 mm 2 mps 754 mmHg 93%
    08:00 +27°C° 0.2 mm 2 mps 754 mmHg 93%
    09:00 +28°C° 1.5 mm 2 mps 754 mmHg 89%
    10:00 +29°C° 1.5 mm 2 mps 754 mmHg 85%
    11:00 +30°C° 1.5 mm 3 mps 754 mmHg 81%
    12:00 +30°C° 1.9 mm 3 mps 754 mmHg 80%
    13:00 +30°C° 1.9 mm 3 mps 753 mmHg 80%
    14:00 +30°C° 1.9 mm 3 mps 753 mmHg 79%
    15:00 +30°C° 1.9 mm 3 mps 753 mmHg 81%
    16:00 +30°C° 1.9 mm 3 mps 753 mmHg 83%
    17:00 +29°C° 1.9 mm 3 mps 752 mmHg 85%
    18:00 +28°C° 2.2 mm 3 mps 753 mmHg 87%
    19:00 +28°C° 2.2 mm 2 mps 754 mmHg 88%
    20:00 +27°C° 2.2 mm 2 mps 754 mmHg 89%
    21:00 +27°C° 2 mm 2 mps 755 mmHg 91%
    22:00 +26°C° 2 mm 2 mps 755 mmHg 92%
    23:00 +26°C° 2 mm 2 mps 756 mmHg 94%

    24 July, Wednesday

    Time Temperature Precipitation Wind Pressure Humidity
    00:00 +26°C° 1.9 mm 2 mps 755 mmHg 95%
    01:00 +25°C° 1.9 mm 2 mps 755 mmHg 96%
    02:00 +25°C° 1.9 mm 2 mps 755 mmHg 97%
    03:00 +25°C° 0.6 mm 2 mps 755 mmHg 96%
    04:00 +25°C° 0.6 mm 1 mps 754 mmHg 96%
    05:00 +25°C° 0.6 mm 1 mps 754 mmHg 96%
    06:00 +25°C° 0.4 mm 1 mps 755 mmHg 95%
    07:00 +25°C° 0.4 mm 1 mps 755 mmHg 95%
    08:00 +25°C° 0.4 mm 1 mps 756 mmHg 94%
    09:00 +26°C° 0.1 mm 1 mps 756 mmHg 91%
    10:00 +27°C° 0.1 mm 1 mps 756 mmHg 88%
    11:00 +28°C° 0.1 mm 1 mps 756 mmHg 84%
    12:00 +29°C° 0 mm 1 mps 755 mmHg 77%
    13:00 +30°C° 0 mm 1 mps 754 mmHg 71%
    14:00 +29°C° 0 mm 0 mps 753 mmHg 64%
    15:00 +31°C° 0 mm 1 mps 753 mmHg 65%
    16:00 +31°C° 0 mm 1 mps 753 mmHg 67%
    17:00 +31°C° 0 mm 2 mps 753 mmHg 68%
    18:00 +30°C° 0 mm 2 mps 753 mmHg 73%
    19:00 +28°C° 0 mm 2 mps 754 mmHg 78%
    20:00 +27°C° 0 mm 1 mps 755 mmHg 83%
    21:00 +27°C° 0.5 mm 1 mps 755 mmHg 85%
    22:00 +27°C° 0.5 mm 1 mps 756 mmHg 86%
    23:00 +27°C° 0.5 mm 1 mps 756 mmHg 88%

    25 July, Thursday

    Time Temperature Precipitation Wind Pressure Humidity
    00:00 +26°C° 1 mm 1 mps 756 mmHg 90%
    01:00 +26°C° 1 mm 1 mps 755 mmHg 92%
    02:00 +26°C° 1 mm 1 mps 755 mmHg 95%
    03:00 +26°C° 0.5 mm 1 mps 755 mmHg 95%
    04:00 +25°C° 0.5 mm 1 mps 755 mmHg 95%
    05:00 +25°C° 0.5 mm 1 mps 755 mmHg 94%
    06:00 +26°C° 1 mm 2 mps 755 mmHg 94%
    07:00 +26°C° 1 mm 2 mps 756 mmHg 93%
    08:00 +27°C° 1 mm 2 mps 756 mmHg 92%
    09:00 +28°C° 1.2 mm 2 mps 756 mmHg 88%
    10:00 +29°C° 1.2 mm 2 mps 756 mmHg 85%
    11:00 +30°C° 1.2 mm 2 mps 756 mmHg 81%
    12:00 +30°C° 1 mm 2 mps 755 mmHg 82%
    13:00 +30°C° 1 mm 3 mps 755 mmHg 83%
    14:00 +30°C° 1 mm 3 mps 754 mmHg 84%
    15:00 +30°C° 1.6 mm 3 mps 754 mmHg 85%
    16:00 +29°C° 1.6 mm 3 mps 754 mmHg 87%
    17:00 +28°C° 1.6 mm 3 mps 754 mmHg 89%
    18:00 +28°C° 3.2 mm 2 mps 755 mmHg 90%
    19:00 +27°C° 3.2 mm 2 mps 755 mmHg 92%
    20:00 +26°C° 3.2 mm 2 mps 756 mmHg 93%
    21:00 +26°C° 2.8 mm 2 mps 756 mmHg 94%
    22:00 +26°C° 2.8 mm 2 mps 756 mmHg 96%
    23:00 +26°C° 2.8 mm 2 mps 757 mmHg 97%

    26 July, Friday

    Time Temperature Precipitation Wind Pressure Humidity
    00:00 +26°C° 0.9 mm 2 mps 756 mmHg 97%
    01:00 +26°C° 0.9 mm 2 mps 756 mmHg 96%
    02:00 +26°C° 0.9 mm 2 mps 755 mmHg 96%
    03:00 +26°C° 0.5 mm 1 mps 755 mmHg 96%
    04:00 +26°C° 0.5 mm 1 mps 755 mmHg 95%
    05:00 +26°C° 0.5 mm 1 mps 755 mmHg 95%
    06:00 +26°C° 0.7 mm 1 mps 756 mmHg 94%
    07:00 +26°C° 0.7 mm 1 mps 756 mmHg 93%
    08:00 +27°C° 0.7 mm 1 mps 756 mmHg 93%
    09:00 +28°C° 0.3 mm 1 mps 756 mmHg 84%
    10:00 +30°C° 0.3 mm 1 mps 756 mmHg 76%
    11:00 +32°C° 0.3 mm 1 mps 756 mmHg 67%
    12:00 +31°C° 0.8 mm 2 mps 755 mmHg 72%
    13:00 +31°C° 0.8 mm 2 mps 755 mmHg 76%
    14:00 +30°C° 0.8 mm 3 mps 754 mmHg 81%
    15:00 +30°C° 1.7 mm 3 mps 754 mmHg 82%
    16:00 +30°C° 1.7 mm 3 mps 754 mmHg 83%
    17:00 +29°C° 1.7 mm 3 mps 754 mmHg 84%
    18:00 +28°C° 2.2 mm 2 mps 755 mmHg 87%
    19:00 +27°C° 2.2 mm 2 mps 755 mmHg 89%
    20:00 +26°C° 2.2 mm 1 mps 756 mmHg 91%
    21:00 +26°C° 0.6 mm 1 mps 756 mmHg 91%
    22:00 +24°C° 0.6 mm 0 mps 756 mmHg 91%
    23:00 +24°C° 0.6 mm 0 mps 757 mmHg 90%
    Show more